GFSFLT2_250_rhum_027.txt.gz
RH
76 60 28 20 10 11 14 15 18 19 18 19 20 22 24 24 25 28 28 25 27 28 32 41 47 43 41 33 32 32 39 47
37 19 10 10 14 17 19 18 18 19 20 22 22 24 24 26 29 37 39 38 35 24 25 30 36 39 47 48 39 40 37 38
13 13 12 17 19 18 20 22 23 24 24 23 24 26 31 36 39 41 45 46 46 42 39 40 39 40 40 41 48 46 42 42
13 15 18 20 24 29 31 32 30 28 28 28 30 33 35 40 39 39 40 43 44 43 43 37 32 32 38 38 38 38 45 44
16 20 24 29 29 29 29 23 19 21 21 22 26 31 38 41 44 43 45 47 49 48 44 42 46 42 40 43 42 39 36 38
18 20 28 32 32 29 25 19 18 21 24 26 27 29 31 34 37 43 46 47 44 40 38 40 43 45 48 46 50 54 49 41
21 25 23 24 21 26 23 22 21 23 25 28 30 34 40 46 54 50 47 48 51 52 49 45 42 40 41 40 43 54 67 68
15 16 16 17 19 22 22 21 20 24 26 29 32 42 50 64 69 69 73 72 70 61 55 50 46 45 46 46 44 45 48 63
16 18 22 27 25 23 22 21 23 26 32 40 48 57 66 74 80 86 91 87 76 69 63 66 64 58 59 56 55 49 44 42
18 21 23 25 26 30 32 37 35 41 49 57 65 74 90 96 100 98 85 74 65 61 62 63 58 58 69 73 67 63 53 50
21 23 26 27 28 31 34 39 49 60 67 68 82 82 86 81 77 68 65 64 65 68 78 86 91 97 92 99 95 95 92 78
25 26 28 28 28 33 49 62 68 74 73 77 72 63 54 49 50 51 51 55 63 71 74 82 82 80 78 76 71 66 76 84
23 26 34 44 55 60 62 65 64 72 83 73 65 58 54 59 64 64 62 60 61 63 71 73 79 89 94 84 92 100 95 78
33 44 50 50 50 49 55 62 71 65 60 62 65 71 70 68 60 55 57 55 57 60 64 78 77 72 76 84 81 69 88 82
54 59 58 51 52 70 75 65 64 72 73 68 62 58 62 62 61 59 58 59 58 72 89 89 94 100 100 98 86 83 91 92
65 62 64 79 87 66 63 63 66 60 54 57 58 59 64 67 70 76 80 71 81 90 90 90 95 83 99 90 79 88 91 74
78 73 81 77 76 77 69 54 52 58 64 68 71 75 81 93 100 100 87 86 92 94 100 99 80 80 81 78 74 64 66 46
86 96 94 93 80 63 59 58 65 66 73 80 84 92 95 79 73 74 77 82 91 91 84 74 80 73 70 54 41 29 18 17
76 66 67 62 64 55 58 64 75 82 87 96 100 97 92 95 87 79 80 90 84 71 72 77 58 50 40 31 18 14 14 15
59 58 56 52 50 56 71 78 85 89 91 85 85 93 82 80 78 91 86 85 83 83 76 63 52 34 24 14 13 12 12 12

GFSFLT2_250_rhum_030.txt.gz
RH
100 100 100 90 70 48 18 11 11 14 15 15 15 17 20 23 29 30 33 36 36 35 33 33 33 30 31 31 25 23 23 25
100 100 84 58 24 12 12 16 17 18 19 20 22 23 26 28 31 34 33 32 36 42 45 47 47 42 38 41 42 39 34 30
97 79 51 17 12 16 17 18 18 19 20 22 23 24 23 23 27 30 32 35 38 37 41 45 50 52 54 52 52 51 51 48
66 33 12 13 17 24 22 19 17 17 17 17 18 19 20 26 25 29 31 31 36 33 34 36 36 36 38 37 41 46 52 53
12 12 14 19 25 24 24 23 24 22 20 17 17 20 22 21 24 25 32 37 42 47 49 48 49 49 44 46 38 36 36 36
15 17 22 26 24 21 20 20 19 20 21 20 19 23 23 24 25 35 47 58 64 69 70 73 73 66 60 54 50 45 43 42
18 19 19 16 16 16 16 16 16 20 18 18 18 21 25 31 38 42 46 55 57 58 58 54 52 52 46 45 48 51 52 50
16 17 16 15 16 16 20 21 25 28 28 26 26 30 35 42 48 54 57 60 59 56 54 57 63 60 63 72 71 76 73 64
15 16 16 15 16 19 23 24 26 27 28 33 39 45 41 45 48 54 56 56 52 49 47 49 51 52 52 56 57 61 68 81
20 22 21 23 23 25 26 25 23 25 31 34 43 42 39 49 47 56 62 61 58 61 63 61 60 61 64 64 66 68 73 87
25 24 24 23 23 26 28 34 35 38 41 41 48 45 52 59 67 68 67 65 67 71 68 63 60 60 57 62 68 72 80 83
22 21 22 28 48 45 45 46 48 50 49 43 55 46 48 52 52 55 56 58 58 58 62 62 67 71 72 68 66 56 53 66
23 24 29 35 44 42 44 40 36 40 42 45 42 41 45 44 47 49 55 55 53 61 66 69 74 82 85 80 73 69 80 83
24 28 36 45 46 41 42 39 36 43 52 50 48 48 52 54 52 49 54 65 71 69 64 65 67 65 61 60 64 74 75 82
27 40 52 52 42 40 42 47 63 68 56 46 48 54 56 56 64 74 79 82 92 92 75 67 67 76 76 72 69 64 70 92
36 55 52 52 52 50 56 64 61 54 52 58 60 61 67 74 79 78 79 80 75 74 77 74 71 62 66 68 69 62 64 60
58 53 52 57 65 63 63 69 67 65 65 70 73 76 74 78 87 93 91 71 65 65 64 67 64 67 74 80 92 90 80 57
65 64 60 57 65 70 71 67 63 66 72 71 70 78 79 78 76 78 77 94 89 79 63 74 83 80 77 67 52 51 37 29
68 63 62 69 67 59 62 60 58 60 64 69 75 80 86 92 98 94 87 76 77 75 83 94 85 68 52 40 23 21 20 20
62 63 61 55 54 60 69 64 66 71 70 82 92 91 74 65 65 69 74 77 76 76 73 62 49 38 20 18 17 15 13 11

GFSFLT2_250_rhum_033.txt.gz
RH
100 100 100 100 100 100 89 64 27 12 13 14 15 17 18 18 19 20 19 21 26 28 30 29 27 30 32 31 29 25 25 34
100 100 100 100 97 83 54 25 14 15 16 17 17 18 19 18 20 22 22 27 28 30 36 36 33 33 34 31 32 32 30 42
99 100 100 97 80 49 23 16 18 16 17 17 17 16 16 16 20 21 20 24 25 26 31 37 38 41 42 41 42 42 40 38
100 100 96 71 44 18 16 19 20 20 20 20 19 18 17 17 16 17 18 19 22 24 30 40 45 46 48 52 52 54 47 48
100 95 60 35 18 20 24 22 21 17 16 15 15 15 15 16 17 18 21 23 29 35 38 42 46 49 52 57 51 46 47 45
89 64 32 16 18 23 22 18 16 16 18 19 19 19 20 19 19 22 28 37 39 41 41 44 43 45 45 42 41 44 42 38
53 18 16 16 18 16 15 15 14 16 20 21 21 22 21 22 26 26 32 36 38 41 46 56 58 54 49 47 43 42 43 42
14 14 14 14 16 14 14 15 15 18 21 24 22 22 25 32 40 44 47 45 47 52 57 58 57 53 55 60 58 55 49 46
14 16 14 20 20 19 21 21 20 20 22 23 31 37 44 46 42 40 41 40 37 39 46 43 43 49 51 55 61 62 61 62
14 15 26 89 100 81 73 61 38 30 29 38 42 43 36 36 39 41 40 38 38 38 39 37 39 46 54 56 64 71 75 82
16 42 32 50 100 90 62 49 36 37 35 32 32 34 43 47 50 47 46 41 43 50 52 48 47 51 49 56 63 68 78 88
31 26 27 57 56 42 29 36 43 35 31 34 33 38 44 46 46 47 46 47 55 56 61 64 68 69 65 63 68 79 80 60
19 20 21 23 23 26 36 41 35 32 34 39 44 46 51 55 53 52 57 62 63 56 47 41 45 52 59 61 61 53 56 66
27 27 25 23 21 30 38 38 36 43 44 40 42 44 48 48 49 49 48 47 42 42 44 50 58 58 59 62 66 74 69 77
26 26 21 20 27 40 45 46 49 49 46 46 51 53 54 52 47 44 43 41 43 48 54 57 67 82 84 77 80 85 95 100
20 19 21 37 52 53 48 47 45 43 44 49 51 58 52 46 42 43 47 50 56 62 71 74 85 92 90 93 89 82 83 91
19 21 44 64 58 45 43 43 46 48 52 61 64 63 64 59 60 64 68 62 61 66 68 58 65 72 72 75 78 72 52 40
19 43 49 49 39 39 44 51 55 62 71 74 86 90 74 67 68 68 69 64 70 74 71 60 58 56 45 28 24 26 22 17
59 66 62 44 45 44 49 54 56 61 70 68 55 50 62 85 84 71 61 67 69 67 65 61 57 53 34 24 18 17 15 13
53 52 46 44 39 47 60 65 61 60 69 89 95 88 84 86 62 64 62 66 65 67 62 50 35 21 17 14 13 13 12 11

GFSFLT2_250_rhum_036.txt.gz
RH
98 98 100 91 99 100 100 100 100 95 79 62 30 17 18 18 16 16 17 16 14 16 18 17 19 22 23 25 28 27 33 29
100 100 100 100 100 100 100 100 91 84 68 40 19 18 17 17 16 16 15 16 18 19 20 21 22 26 27 32 32 30 38 48
100 100 100 100 100 100 100 96 88 72 38 22 22 18 17 16 14 14 16 17 17 17 21 23 28 32 37 38 39 38 32 40
100 100 100 100 100 99 95 85 64 34 25 25 19 16 15 15 14 15 15 16 17 18 19 25 29 34 33 37 36 37 39 39
100 100 100 100 100 95 85 55 31 24 20 19 16 16 17 19 18 20 22 24 26 25 27 33 38 42 43 46 50 49 48 45
100 100 100 100 94 71 32 18 16 16 16 16 15 15 17 21 24 24 24 27 32 34 35 35 38 41 45 46 51 52 44 40
100 100 99 83 48 18 16 16 17 22 24 21 20 20 20 22 24 29 36 40 40 41 42 41 39 38 39 40 42 43 46 52
94 83 44 19 15 17 90 100 100 100 90 64 40 33 36 37 37 36 36 36 36 38 42 42 40 39 38 37 40 44 46 47
38 23 15 22 48 100 89 93 83 62 77 58 39 29 33 35 31 30 30 33 35 39 44 45 44 43 42 43 48 50 48 53
19 16 32 68 100 94 93 96 98 89 67 34 31 37 40 36 34 38 40 41 42 46 44 42 41 43 46 48 52 61 69 74
16 20 61 82 100 100 84 50 39 26 23 26 34 41 43 46 48 48 48 48 49 52 52 45 45 47 48 49 53 51 48 48
29 74 92 100 100 82 45 28 23 22 20 28 42 49 49 51 52 51 51 56 62 68 70 63 60 57 49 42 38 38 45 50
27 37 66 75 41 27 26 24 22 19 28 42 44 41 38 37 37 41 48 50 44 40 39 39 38 34 35 40 47 49 55 70
17 16 17 18 21 22 23 22 18 28 41 44 35 32 32 31 28 27 30 33 36 40 41 40 36 37 42 48 51 60 65 72
20 19 19 20 21 22 19 17 27 43 45 37 34 33 33 35 39 39 36 38 40 37 39 37 42 49 55 60 64 65 71 86
17 17 19 20 20 18 17 32 53 62 47 41 38 36 39 43 42 45 54 57 48 43 46 54 68 73 75 78 80 72 72 65
15 16 17 17 17 21 47 70 66 55 48 46 44 44 53 67 76 73 66 54 55 66 80 85 80 78 76 73 70 71 59 46
16 17 22 33 49 63 68 58 58 57 57 55 58 73 72 61 50 49 60 79 83 80 69 66 70 68 67 56 38 30 24 15
36 46 55 54 55 53 54 57 57 51 47 51 55 49 49 64 90 100 94 86 77 60 64 59 56 46 35 27 20 17 14 11
58 55 58 62 63 64 54 43 42 62 61 55 70 90 99 100 95 91 70 55 58 57 53 47 35 23 17 13 11 9 9 9